Location: Peebles
(55.6412°N, 3.1714°W)
Time: 23:42:55
(UTC+01:00)

CENTAUR R/B - Pass Details

Date: 19 January 2022
Orbit: 716 x 1471 km, 63.4° (Epoch: 08 May)

Event Time Altitude Azimuth Distance (km) Brightness Sun altitude
Rises 22:41:06 0° 298° (WNW) 3,883 6.2 -49.7°
Reaches altitude 10° 22:43:39 10° 303° (WNW) 3,030 5.5 -49.9°
Enters shadow 22:45:17 18° 307° (NW) 2,510 5.0 -50.0°
